Location: Brantley
(31.5822°N, 86.2569°W)
Time: 00:16:51
(UTC+00:00)

Courier 1B Rocket - Pass Details

Date: 16 February 2026
Orbit: 920 x 1201 km, 28.2° (Epoch: 9 March)

Event Time Altitude Azimuth Distance (km) Brightness Sun altitude
Rises 02:06:59 0° 249° (WSW) 3,562 8.8 -33.6°
Reaches altitude 10° 02:09:35 10° 245° (WSW) 2,638 7.9 -34.1°
Enters shadow 02:13:37 39° 224° (SW) 1,398 5.9 -35.0°
Maximum altitude 02:15:47 57° 169° (S) 1,133 - -35.4°
Drops below altitude 10° 02:22:22 10° 92° (E) 2,799 - -36.8°
Sets 02:25:12 0° 88° (E) 3,796 - -37.4°
